Cosmos 1025 Rocket - Orbit

View from above orbital plane
View from above orbital plane
View from above satellite
View from above satellite

Ground track
Ground track

The orbit data is extracted from the following two-line orbital elements,

1 10974U 78067B   13144.53410843  .00000456  00000-0  49106-4 0  9832
2 10974 082.4815 134.4195 0017101 215.3144 293.2825 14.86205812886963
Epoch (UTC): 24 May 2013 12:49:06
Eccentricity: 0.0017101
inclination: 82.4815°
perigee height: 598 km
apogee height: 622 km
right ascension of ascending node: 134.4195°
argument of perigee: 215.3144°
revolutions per day: 14.86205812
mean anomaly at epoch: 293.2825°
orbit number at epoch: 88696

The dashed part of the orbit path shows where the satellite is in the earth's shadow,  

Developed and maintained by Chris Peat, Heavens-Above GmbH. Please read the updated FAQ before sending e-mail. Imprint. DLR